Powrót do katalogu

SL-8 R/B

AktywnyPO
NORAD 10600·ROCKET BODY·🇷🇺 Russia

Wystrzelony Jan 17, 1978 z Plesetsk Cosmodrome

Loading…

Następne Przeloty (najbliższe 24 godziny)

TLE

ŚwieżeSource: Space-Track

Epoka: Sep 14, 2026, 08:22 UTC

1 10600U 78007B   26257.34914397  .00000141  00000-0  12277-3 0  9999
2 10600  82.9368 282.4222 0047713 186.9369 173.1135 13.78853145446887

Śledź SL-8 R/B w czasie rzeczywistym z AllMySat

Download on the App Store